Weather History for Bentonville, AR

Change the Weather History Date:

Tuesday, February 5, 2013

  Actual Average Record
Temperature  
Mean Temperature 47 °F -  
Max Temperature 64 °F 45 °F 70 °F (1963)
Min Temperature 30 °F 25 °F 1 °F (1989)
Degree Days  
Heating Degree Days 18    
Moisture  
Dew Point 33 °F    
Average Humidity 63    
Maximum Humidity 93    
Minimum Humidity 30    
Precipitation  
Precipitation 0.00 in - - ()
Sea Level Pressure  
Sea Level Pressure 29.98 in    
Wind  
Wind Speed 2 mph (WNW)    
Max Wind Speed 12 mph    
Max Gust Speed 17 mph    
Visibility 10 miles    
Events      
Averages and records for this station are not official NWS values.
T = Trace of Precipitation, MM = Missing Value Source: NWS Daily Summary

Daily Weather History Graph

Daily Weather History Graph

Search for Another Location

Airport:

Trip Planner

Search our weather history database for the weather conditions in past years. The results will help you decide how hot, cold, wet, or windy it might be!

Date:

Astronomy

Feb. 05, 2013 Rise Set
Actual Time 7:14 AM CST 5:47 PM CST
Civil Twilight 6:47 AM CST 6:14 PM CST
Nautical Twilight 6:17 AM CST 6:45 PM CST
Astronomical Twilight 5:46 AM CST 7:15 PM CST
Moon 2:54 AM CST (2/5) 1:09 PM CST (2/5)
Length of Visible Light 11h 27m
Length of Day
10h 33m
Waning Crescent, 26% of the Moon is Illuminated
Feb 5
Waning Crescent
Feb 10
New
Feb 17
First Quarter
Feb 25
Full
Mar 4
Last Quarter

Hourly Weather History & Observations

Time (CST) Temp. Windchill Dew Point Humidity Pressure Visibility Wind Dir Wind Speed Gust Speed Precip Events Conditions
12:15 AM 35.6 °F - 30.2 °F 81% 29.94 in 10.0 mi Calm Calm - N/A   Clear
12:55 AM 35.6 °F - 30.2 °F 81% 29.93 in 10.0 mi Calm Calm - N/A   Clear
1:35 AM 33.8 °F - 30.2 °F 87% 29.93 in 10.0 mi Calm Calm - N/A   Clear
1:55 AM 33.8 °F - 30.2 °F 87% 29.92 in 10.0 mi Calm Calm - N/A   Clear
2:15 AM 33.8 °F 30.8 °F 28.4 °F 81% 29.92 in 10.0 mi SE 3.5 mph - N/A   Clear
2:35 AM 32.0 °F - 26.6 °F 80% 29.92 in 10.0 mi Calm Calm - N/A   Clear
3:15 AM 33.8 °F - 28.4 °F 81% 29.90 in 10.0 mi Calm Calm - N/A   Clear
3:35 AM 32.0 °F - 28.4 °F 87% 29.90 in 10.0 mi Calm Calm - N/A   Clear
4:15 AM 33.8 °F - 30.2 °F 87% 29.91 in 10.0 mi Calm Calm - N/A   Clear
4:35 AM 32.0 °F - 28.4 °F 87% 29.91 in 10.0 mi Calm Calm - N/A   Clear
5:15 AM 30.2 °F - 28.4 °F 93% 29.92 in 10.0 mi Calm Calm - N/A   Clear
5:55 AM 33.8 °F - 28.4 °F 81% 29.93 in 10.0 mi Calm Calm - N/A   Clear
6:15 AM 30.2 °F - 28.4 °F 93% 29.93 in 10.0 mi Calm Calm - N/A   Clear
6:35 AM 32.0 °F - 28.4 °F 87% 29.94 in 10.0 mi Calm Calm - N/A   Clear
7:15 AM 30.2 °F - 28.4 °F 93% 29.95 in 5.0 mi Calm Calm - N/A   Clear
7:35 AM 30.2 °F - 26.6 °F 86% 29.96 in 5.0 mi Calm Calm - N/A   Clear
8:15 AM 35.6 °F 32.8 °F 33.8 °F 93% 29.97 in 10.0 mi South 3.5 mph - N/A   Clear
8:35 AM 37.4 °F 34.9 °F 33.8 °F 87% 29.98 in 10.0 mi South 3.5 mph - N/A   Clear
8:55 AM 41.0 °F - 35.6 °F 81% 29.98 in 10.0 mi Calm Calm - N/A   Clear
9:35 AM 44.6 °F - 37.4 °F 76% 30.00 in 10.0 mi Calm Calm - N/A   Clear
9:55 AM 46.4 °F - 39.2 °F 76% 30.00 in 10.0 mi Calm Calm - N/A   Clear
10:15 AM 50.0 °F - 42.8 °F 76% 30.01 in 10.0 mi West 5.8 mph - N/A   Clear
10:55 AM 53.6 °F - 46.4 °F 77% 30.02 in 10.0 mi West 4.6 mph - N/A   Clear
11:15 AM 57.2 °F - 46.4 °F 67% 30.02 in 10.0 mi WSW 8.1 mph - N/A   Clear
11:36 AM 59.0 °F - 42.8 °F 55% 30.01 in 10.0 mi WSW 10.4 mph - N/A   Clear
11:55 AM 60.8 °F - 39.2 °F 45% 30.01 in 10.0 mi West 9.2 mph - N/A   Clear
12:15 PM 60.8 °F - 37.4 °F 42% 30.00 in 10.0 mi WSW 9.2 mph - N/A   Clear
12:35 PM 60.8 °F - 37.4 °F 42% 29.99 in 10.0 mi West 9.2 mph - N/A   Clear
1:15 PM 62.6 °F - 33.8 °F 34% 29.98 in 10.0 mi WNW 6.9 mph - N/A   Clear
1:36 PM 62.6 °F - 35.6 °F 37% 29.97 in 10.0 mi NW 10.4 mph - N/A   Clear
1:55 PM 62.6 °F - 35.6 °F 37% 29.97 in 10.0 mi WNW 8.1 mph - N/A   Clear
2:15 PM 62.6 °F - 35.6 °F 37% 29.97 in 10.0 mi West 10.4 mph 16.1 mph N/A   Clear
2:55 PM 64.4 °F - 33.8 °F 32% 29.96 in 10.0 mi West 11.5 mph - N/A   Clear
3:35 PM 62.6 °F - 30.2 °F 30% 29.97 in 10.0 mi NNW 9.2 mph 17.3 mph N/A   Clear
3:56 PM 62.6 °F - 32.0 °F 32% 29.98 in 10.0 mi NNW 9.2 mph - N/A   Clear
4:15 PM 60.8 °F - 33.8 °F 36% 29.98 in 10.0 mi NNW 10.4 mph - N/A   Clear
4:35 PM 60.8 °F - 32.0 °F 34% 29.98 in 10.0 mi NNW 8.1 mph - N/A   Clear
4:56 PM 60.8 °F - 32.0 °F 34% 29.98 in 10.0 mi NW 5.8 mph - N/A   Clear
5:15 PM 59.0 °F - 32.0 °F 36% 29.98 in 10.0 mi WNW 4.6 mph - N/A   Clear
5:35 PM 57.2 °F - 33.8 °F 41% 29.99 in 10.0 mi WNW 3.5 mph - N/A   Clear
5:56 PM 55.4 °F - 33.8 °F 44% 29.99 in 10.0 mi WNW 3.5 mph - N/A   Clear
6:15 PM 53.6 °F - 33.8 °F 47% 29.99 in 10.0 mi Calm Calm - N/A   Clear
6:35 PM 51.8 °F - 35.6 °F 54% 30.00 in 10.0 mi Calm Calm - N/A   Clear
6:55 PM 48.2 °F - 32.0 °F 54% 30.01 in 10.0 mi Calm Calm - N/A   Clear
7:15 PM 46.4 °F - 33.8 °F 62% 30.01 in 10.0 mi Calm Calm - N/A   Clear
7:35 PM 46.4 °F 45.2 °F 35.6 °F 66% 30.02 in 10.0 mi NNW 3.5 mph - N/A   Clear
7:55 PM 48.2 °F - 30.2 °F 50% 30.02 in 10.0 mi North 4.6 mph - N/A   Clear
8:35 PM 48.2 °F - 30.2 °F 50% 30.02 in 10.0 mi NNE 4.6 mph - N/A   Clear
8:55 PM 48.2 °F - 30.2 °F 50% 30.03 in 10.0 mi NE 3.5 mph - N/A   Clear
9:15 PM 44.6 °F - 30.2 °F 57% 30.03 in 10.0 mi Calm Calm - N/A   Clear
9:36 PM 44.6 °F - 30.2 °F 57% 30.04 in 10.0 mi Calm Calm - N/A   Clear
9:55 PM 42.8 °F - 32.0 °F 66% 30.05 in 10.0 mi Calm Calm - N/A   Clear
10:15 PM 41.0 °F - 32.0 °F 70% 30.04 in 10.0 mi Calm Calm - N/A   Clear
10:35 PM 39.2 °F 35.9 °F 28.4 °F 65% 30.04 in 10.0 mi ENE 4.6 mph - N/A   Clear
10:55 PM 41.0 °F - 30.2 °F 65% 30.05 in 10.0 mi Calm Calm - N/A   Clear
11:15 PM 42.8 °F 40.1 °F 30.2 °F 61% 30.05 in 10.0 mi ENE 4.6 mph - N/A   Clear
11:55 PM 39.2 °F - 30.2 °F 70% 30.05 in 10.0 mi Calm Calm - N/A   Clear